{"data":{"norad_id":69891,"intl_designator":"2026-156Y","name":"GRUS-3C","alt_names":[],"object_type":"PAYLOAD","status":"ACTIVE","operator":null,"country":"JPN","launch_date":"2026-07-07","launch_site_code":"AFWTR","launch_vehicle":null,"mission":null,"orbit_class":"UNKNOWN","rcs_meters":null,"size_class":null,"mass_kg":null,"dimensions":null,"purposes":[],"wikipedia_slug":null,"has_3d_model":false,"image_url":null,"decayed_at":null,"tle_current":{"epoch":"2026-09-20T03:24:12.461760Z","epoch_age_seconds":52635,"freshness":"FRESH","line1":"1 69891U 26156Y   26263.14181090  .00000735  00000+0  78760-4 0  9992","line2":"2 69891  97.7426 162.2937 0004686 252.1717 107.8991 14.91618848 11152","mean_motion":14.91618848,"eccentricity":0.0004686,"inclination_deg":97.7426,"raan_deg":162.2937,"arg_perigee_deg":252.1717,"mean_anomaly_deg":107.8991,"bstar":7.876e-5,"rev_number":1115,"period_min":96.539407632908,"perigee_km":589.62072722783,"apogee_km":596.15397124794,"semimajor_km":6971.0243492379,"source":"CELESTRAK","updated_at":"2026-09-20T09:00:25.168675Z"}}}